Temp
-16 -16 -16 -17 -18 -20 -18 -18 -17 -17 -16 -14 -13 -12 -12 -12 -13 -12 -12 -12 -11 -11 -11 -12 -12 -14 -14 -15 -15 -16 -16 -15 -14 -15 -14 -14 -13 -13 -14 -14 -13 -13 -13 -12
-17 -16 -19 -19 -19 -18 -19 -18 -17 -17 -16 -15 -14 -13 -13 -13 -13 -12 -11 -11 -11 -12 -12 -12 -13 -14 -14 -15 -15 -16 -15 -15 -14 -15 -14 -14 -13 -13 -14 -13 -13 -13 -13 -12
-18 -17 -18 -20 -19 -19 -19 -18 -17 -16 -16 -15 -14 -13 -13 -13 -13 -12 -12 -12 -12 -12 -12 -12 -13 -14 -14 -15 -16 -16 -16 -15 -14 -15 -14 -14 -13 -14 -13 -13 -13 -13 -13 -12
-17 -18 -18 -19 -20 -19 -19 -19 -18 -17 -16 -15 -15 -13 -13 -14 -13 -12 -12 -12 -12 -12 -12 -13 -14 -14 -14 -15 -16 -16 -16 -15 -14 -15 -14 -14 -14 -14 -14 -13 -13 -13 -12 -12
-19 -19 -19 -19 -21 -20 -20 -19 -18 -17 -16 -15 -16 -14 -14 -13 -13 -12 -12 -12 -12 -12 -13 -13 -15 -14 -15 -15 -15 -16 -15 -15 -15 -15 -14 -14 -14 -14 -14 -13 -13 -14 -13 -12
-19 -19 -19 -20 -21 -20 -19 -19 -18 -18 -17 -15 -15 -15 -15 -14 -13 -12 -12 -12 -13 -14 -14 -14 -15 -15 -15 -15 -15 -15 -15 -15 -15 -14 -14 -14 -14 -14 -14 -13 -13 -13 -13 -13
-19 -19 -19 -20 -20 -20 -20 -20 -19 -19 -17 -16 -15 -15 -16 -14 -13 -13 -13 -14 -15 -16 -16 -16 -15 -15 -15 -15 -15 -15 -15 -16 -15 -14 -14 -14 -14 -14 -14 -14 -13 -13 -13 -13
-20 -20 -20 -19 -20 -20 -20 -19 -19 -18 -18 -17 -16 -16 -15 -15 -14 -14 -15 -15 -15 -15 -16 -16 -15 -15 -15 -15 -15 -15 -15 -15 -15 -14 -14 -14 -14 -14 -15 -14 -14 -13 -13 -13
-21 -20 -20 -20 -20 -21 -20 -20 -19 -18 -18 -17 -17 -16 -16 -15 -15 -15 -16 -15 -15 -15 -16 -15 -16 -16 -15 -15 -15 -15 -15 -15 -14 -14 -14 -14 -14 -14 -14 -14 -14 -14 -13 -13
-22 -21 -20 -20 -20 -21 -20 -20 -20 -19 -18 -18 -18 -17 -16 -16 -16 -16 -15 -15 -16 -16 -16 -16 -16 -15 -15 -15 -15 -15 -15 -15 -14 -14 -14 -14 -14 -14 -14 -14 -14 -14 -14 -14
-23 -22 -21 -21 -21 -20 -21 -21 -20 -19 -18 -18 -17 -17 -17 -17 -17 -16 -16 -16 -16 -17 -16 -16 -16 -16 -15 -15 -15 -16 -15 -15 -15 -14 -14 -14 -14 -14 -14 -14 -14 -15 -14 -14
-23 -22 -22 -21 -21 -21 -21 -21 -20 -19 -19 -18 -18 -17 -17 -17 -17 -17 -16 -16 -16 -16 -16 -16 -16 -15 -15 -15 -15 -15 -16 -15 -15 -15 -14 -14 -14 -14 -14 -14 -14 -14 -15 -14
-23 -23 -22 -22 -22 -21 -21 -21 -20 -19 -19 -18 -19 -18 -18 -17 -17 -17 -17 -16 -16 -16 -16 -16 -15 -15 -16 -15 -15 -16 -15 -15 -14 -15 -15 -14 -14 -14 -14 -14 -15 -14 -15 -15
-23 -23 -22 -22 -22 -21 -21 -21 -21 -20 -19 -19 -19 -19 -18 -17 -17 -17 -17 -16 -16 -16 -16 -16 -16 -16 -16 -16 -16 -15 -15 -15 -14 -15 -15 -15 -14 -15 -15 -15 -15 -15 -15 -15
-23 -23 -23 -22 -22 -22 -22 -21 -21 -20 -20 -19 -19 -19 -19 -18 -17 -17 -16 -16 -16 -16 -16 -16 -16 -16 -16 -15 -15 -15 -15 -15 -15 -15 -15 -15 -15 -15 -15 -15 -15 -15 -15 -15
-23 -23 -23 -22 -22 -22 -22 -21 -21 -21 -20 -20 -20 -19 -19 -18 -18 -18 -17 -16 -16 -17 -16 -16 -16 -15 -15 -15 -15 -15 -15 -15 -15 -15 -15 -15 -14 -14 -14 -14 -14 -15 -15 -15
-23 -23 -23 -22 -22 -22 -22 -22 -22 -21 -20 -20 -20 -19 -19 -19 -18 -18 -17 -16 -16 -16 -16 -16 -16 -15 -15 -15 -15 -15 -16 -16 -15 -15 -15 -15 -14 -14 -14 -14 -14 -15 -15 -15
-24 -23 -23 -23 -22 -22 -22 -22 -22 -21 -21 -20 -20 -19 -19 -19 -18 -19 -17 -17 -16 -15 -16 -16 -15 -15 -15 -15 -15 -15 -15 -15 -15 -15 -14 -14 -15 -14 -14 -15 -15 -15 -15 -15
-25 -24 -24 -23 -23 -23 -23 -22 -22 -21 -21 -20 -20 -19 -19 -18 -18 -18 -18 -18 -17 -17 -15 -15 -15 -15 -15 -15 -15 -15 -15 -15 -15 -15 -15 -15 -14 -15 -15 -15 -15 -15 -15 -15
-25 -25 -24 -23 -23 -23 -23 -23 -22 -22 -21 -20 -20 -19 -19 -18 -18 -18 -18 -18 -18 -17 -17 -16 -15 -15 -15 -15 -14 -15 -15 -15 -15 -15 -14 -14 -14 -15 -15 -15 -15 -15 -15 -15
-26 -25 -25 -24 -24 -23 -23 -22 -22 -22 -21 -21 -20 -19 -19 -19 -19 -18 -18 -18 -18 -17 -17 -17 -16 -14 -15 -15 -15 -15 -15 -15 -15 -15 -15 -14 -15 -14 -15 -15 -16 -15 -16 -16
-25 -25 -25 -25 -24 -23 -23 -22 -22 -22 -21 -21 -20 -20 -19 -19 -19 -18 -18 -18 -18 -17 -17 -17 -16 -16 -16 -15 -15 -15 -15 -15 -15 -15 -15 -15 -15 -15 -15 -15 -15 -16 -16 -16
-25 -25 -25 -25 -24 -23 -23 -22 -22 -22 -21 -21 -20 -20 -19 -19 -19 -19 -18 -18 -18 -18 -17 -17 -17 -17 -16 -16 -16 -16 -15 -15 -15 -15 -15 -15 -15 -15 -15 -15 -16 -16 -17 -17
-26 -25 -25 -24 -24 -23 -23 -22 -22 -22 -21 -21 -20 -20 -20 -20 -19 -19 -19 -19 -19 -18 -18 -18 -18 -17 -17 -17 -17 -16 -16 -16 -16 -16 -16 -17 -17 -17 -18 -18 -18 -18 -18 -19
-26 -26 -25 -24 -23 -23 -23 -22 -22 -22 -22 -21 -21 -21 -21 -20 -20 -20 -20 -20 -19 -19 -19 -18 -18 -18 -18 -18 -18 -18 -18 -17 -17 -18 -18 -18 -18 -18 -19 -19 -19 -19 -19 -19
-26 -26 -25 -25 -23 -23 -23 -23 -23 -23 -22 -22 -21 -21 -21 -21 -21 -21 -21 -20 -20 -20 -20 -19 -19 -18 -18 -18 -18 -19 -19 -20 -20 -20 -20 -20 -19 -19 -19 -19 -19 -19 -19 -19
Height
5648 5647 5649 5652 5652 5656 5658 5663 5667 5671 5674 5675 5677 5679 5681 5684 5689 5691 5694 5698 5700 5702 5703 5703 5702 5705 5709 5713 5717 5720 5722 5722 5723 5723 5721 5722 5722 5724 5723 5723 5722 5721 5720 5721
5640 5639 5641 5642 5644 5648 5651 5655 5660 5663 5666 5667 5669 5669 5672 5674 5678 5683 5686 5688 5690 5691 5692 5694 5694 5697 5701 5706 5711 5714 5716 5716 5717 5717 5716 5717 5718 5718 5716 5715 5713 5712 5711 5712
5630 5631 5631 5633 5638 5642 5645 5647 5651 5653 5656 5659 5659 5663 5663 5668 5670 5673 5676 5677 5678 5680 5681 5683 5684 5689 5694 5699 5704 5708 5709 5710 5712 5711 5712 5713 5714 5713 5711 5709 5705 5702 5701 5703
5622 5624 5624 5625 5629 5633 5635 5638 5642 5644 5647 5651 5652 5652 5655 5660 5662 5664 5665 5666 5667 5668 5668 5672 5676 5681 5688 5692 5697 5701 5703 5705 5706 5706 5707 5708 5709 5710 5708 5705 5700 5696 5695 5697
5617 5616 5616 5618 5623 5624 5629 5632 5635 5637 5639 5641 5647 5644 5647 5650 5652 5652 5654 5655 5655 5654 5655 5658 5665 5673 5680 5685 5690 5694 5697 5699 5700 5700 5702 5703 5706 5705 5704 5701 5698 5695 5693 5692
5608 5609 5609 5611 5616 5617 5621 5625 5627 5629 5631 5633 5638 5640 5641 5641 5643 5642 5643 5642 5641 5642 5644 5649 5656 5665 5672 5678 5682 5687 5691 5694 5695 5695 5698 5700 5703 5702 5700 5699 5697 5695 5692 5690
5600 5602 5602 5604 5605 5609 5614 5618 5621 5623 5625 5627 5629 5630 5633 5634 5633 5633 5633 5633 5633 5634 5638 5644 5652 5659 5665 5672 5676 5682 5686 5689 5690 5692 5694 5697 5698 5698 5697 5696 5696 5695 5693 5692
5591 5595 5594 5598 5600 5602 5606 5611 5615 5616 5618 5621 5622 5624 5624 5625 5625 5625 5626 5627 5629 5631 5636 5641 5647 5653 5660 5666 5671 5676 5680 5683 5685 5688 5690 5692 5693 5694 5694 5694 5693 5693 5692 5692
5584 5586 5588 5591 5593 5597 5600 5604 5608 5611 5612 5614 5617 5617 5618 5619 5619 5620 5622 5623 5624 5627 5632 5638 5644 5650 5656 5660 5666 5671 5675 5678 5680 5684 5685 5688 5689 5691 5690 5691 5690 5690 5690 5690
5578 5580 5581 5585 5587 5590 5594 5597 5602 5605 5607 5608 5610 5612 5611 5612 5613 5614 5616 5616 5618 5623 5628 5635 5641 5647 5651 5657 5661 5665 5670 5673 5676 5679 5682 5683 5685 5687 5687 5688 5688 5688 5689 5689
5572 5574 5580 5581 5583 5585 5588 5591 5596 5599 5601 5603 5604 5606 5606 5607 5608 5608 5607 5610 5613 5619 5625 5632 5637 5642 5646 5652 5657 5661 5665 5667 5671 5675 5678 5680 5682 5683 5684 5685 5686 5686 5686 5687
5563 5567 5571 5576 5577 5579 5582 5587 5591 5593 5596 5597 5598 5601 5601 5601 5602 5601 5601 5604 5609 5614 5621 5627 5631 5635 5641 5646 5650 5655 5659 5661 5665 5670 5673 5676 5678 5680 5681 5681 5682 5683 5683 5684
5554 5559 5564 5569 5572 5574 5577 5581 5584 5587 5589 5591 5593 5597 5595 5595 5596 5596 5597 5598 5602 5609 5615 5621 5625 5631 5636 5640 5644 5649 5653 5656 5661 5665 5667 5671 5673 5675 5677 5677 5678 5679 5680 5682
5546 5552 5558 5563 5565 5567 5571 5575 5578 5581 5584 5585 5587 5589 5589 5590 5592 5592 5593 5592 5595 5601 5608 5614 5619 5624 5630 5634 5640 5643 5648 5651 5657 5660 5663 5665 5667 5669 5671 5672 5674 5675 5676 5678
5542 5545 5550 5554 5557 5562 5566 5569 5571 5575 5578 5580 5581 5584 5582 5584 5586 5586 5587 5589 5589 5595 5601 5608 5614 5619 5624 5628 5633 5637 5641 5646 5652 5655 5657 5659 5660 5662 5665 5667 5669 5670 5672 5673
5531 5538 5542 5546 5552 5556 5560 5563 5567 5570 5572 5575 5576 5578 5578 5580 5580 5580 5582 5583 5585 5590 5596 5602 5607 5611 5616 5622 5626 5630 5635 5640 5645 5647 5650 5652 5655 5657 5659 5660 5662 5663 5665 5666
5524 5531 5538 5540 5544 5551 5556 5559 5562 5564 5566 5569 5571 5573 5574 5575 5575 5577 5577 5579 5581 5586 5591 5595 5600 5605 5608 5613 5619 5624 5629 5633 5636 5638 5643 5646 5648 5650 5651 5652 5653 5655 5657 5658
5522 5526 5532 5537 5541 5547 5551 5554 5558 5560 5561 5565 5567 5568 5569 5569 5571 5572 5572 5574 5577 5579 5585 5588 5593 5598 5603 5607 5613 5618 5622 5626 5628 5631 5634 5637 5640 5642 5643 5643 5646 5647 5649 5651
5522 5524 5528 5534 5538 5543 5547 5551 5554 5555 5558 5560 5562 5564 5565 5565 5567 5569 5568 5569 5572 5574 5577 5583 5587 5591 5596 5601 5606 5611 5616 5618 5620 5622 5625 5628 5629 5632 5634 5635 5637 5640 5642 5644
5518 5522 5528 5532 5536 5539 5543 5546 5550 5552 5553 5555 5558 5559 5560 5561 5563 5565 5563 5564 5566 5569 5572 5574 5577 5584 5589 5593 5597 5603 5606 5608 5611 5613 5615 5618 5619 5623 5621 5623 5628 5631 5632 5634
5517 5521 5525 5528 5532 5536 5539 5543 5546 5549 5553 5552 5553 5555 5556 5557 5559 5559 5560 5559 5561 5563 5566 5569 5571 5573 5579 5583 5588 5594 5597 5599 5602 5605 5604 5603 5610 5613 5612 5613 5617 5620 5621 5622
5515 5519 5523 5526 5529 5534 5537 5540 5543 5545 5546 5548 5549 5550 5552 5552 5554 5555 5554 5554 5555 5557 5559 5562 5565 5569 5572 5574 5578 5581 5586 5589 5592 5593 5595 5597 5600 5601 5603 5603 5604 5607 5608 5609
5513 5516 5520 5525 5528 5530 5533 5535 5537 5539 5541 5543 5545 5546 5547 5548 5549 5548 5548 5549 5550 5552 5555 5558 5561 5564 5567 5570 5572 5577 5577 5577 5580 5583 5584 5585 5587 5589 5589 5589 5591 5593 5595 5596
5508 5511 5515 5519 5523 5526 5528 5530 5533 5535 5537 5539 5540 5541 5542 5544 5544 5544 5545 5544 5545 5547 5549 5552 5555 5558 5561 5563 5566 5568 5570 5572 5572 5572 5573 5575 5576 5576 5576 5577 5580 5582 5584 5584
5506 5509 5512 5514 5519 5522 5524 5527 5530 5531 5533 5534 5536 5537 5539 5541 5541 5542 5543 5544 5545 5547 5548 5549 5551 5552 5554 5556 5557 5559 5560 5561 5562 5563 5564 5565 5567 5568 5569 5570 5572 5573 5573 5574
5504 5506 5507 5509 5513 5519 5521 5523 5526 5527 5528 5530 5532 5534 5536 5539 5541 5542 5542 5543 5544 5546 5547 5547 5547 5547 5548 5550 5552 5552 5553 5554 5556 5557 5557 5558 5560 5561 5561 5562 5563 5562 5562 5562
Wind_Speed
37 41 44 38 43 40 41 42 40 38 39 38 38 38 38 36 31 31 27 26 29 32 30 32 37 36 36 31 25 22 24 24 23 26 26 23 23 21 19 21 24 27 30 28
36 38 37 39 37 38 40 33 35 36 38 38 37 37 37 35 30 28 30 31 33 34 33 32 37 36 32 29 27 23 21 24 25 26 24 23 21 21 23 25 28 29 30 29
34 36 40 38 36 36 37 36 35 38 34 36 39 36 36 30 29 29 31 33 35 34 34 33 36 35 33 28 28 24 24 26 23 26 23 22 20 20 24 23 27 27 26 24
34 32 32 44 42 41 40 33 33 33 32 32 34 34 32 26 30 32 33 35 37 39 38 34 37 37 33 31 32 29 27 26 22 26 24 20 17 20 19 17 18 13 15 18
33 32 34 33 27 34 33 30 32 32 31 32 24 32 31 28 28 31 34 35 39 41 40 38 40 38 35 36 33 30 29 26 24 27 23 19 18 16 14 11 10 6 10 11
36 33 33 34 34 34 34 32 34 33 29 30 24 29 26 26 25 31 30 33 33 33 37 38 39 36 34 38 32 29 27 26 26 27 22 20 17 13 10 7 9 7 4 3
35 35 33 37 34 38 36 27 29 29 30 27 26 28 23 22 27 26 25 21 19 23 32 33 33 35 36 37 25 26 24 28 26 29 22 22 15 11 8 6 5 4 4 6
33 34 36 29 29 27 26 25 26 27 26 28 26 25 26 22 22 21 19 15 16 19 28 28 29 34 35 26 24 27 28 27 27 27 23 22 15 11 7 6 4 4 2 3
33 36 36 32 29 26 27 26 26 26 27 28 24 24 23 21 21 21 26 27 20 18 28 31 33 34 32 30 29 30 28 27 25 27 23 22 16 11 8 6 2 1 1 1
32 33 33 31 30 27 27 26 24 25 25 25 20 21 22 18 24 28 28 22 23 25 27 34 36 36 39 33 31 31 29 28 24 24 23 22 18 13 8 6 3 0 1 1
31 32 28 23 25 26 23 24 24 25 25 21 21 19 19 18 21 29 27 21 25 31 31 34 36 39 41 36 33 36 33 31 25 23 24 22 19 16 11 8 7 5 2 3
33 31 30 27 22 23 25 21 23 24 22 21 21 19 18 19 19 26 28 25 30 35 36 40 43 45 35 36 38 39 36 36 27 23 23 22 20 18 14 12 12 11 7 5
34 35 29 26 32 29 23 22 23 22 23 20 20 16 18 18 22 16 21 23 33 38 40 42 43 38 31 30 38 38 39 37 28 24 23 22 21 20 19 18 18 16 14 12
29 31 29 27 26 25 23 23 24 23 22 21 18 16 22 25 22 22 17 21 32 40 43 42 40 33 35 35 39 41 41 39 26 25 23 22 23 24 24 23 21 20 19 18
33 32 30 25 23 24 23 22 22 23 25 24 23 17 21 22 26 29 23 19 33 39 43 42 41 39 41 35 43 42 42 38 23 22 24 26 26 27 27 25 24 22 21 22
19 26 24 25 29 28 25 24 24 23 24 24 24 24 22 24 25 25 24 14 27 35 39 42 42 40 38 39 41 46 42 36 32 34 31 28 27 25 25 26 27 26 26 25
19 28 24 29 39 30 26 21 17 18 23 22 23 23 24 26 25 21 19 16 21 28 34 39 38 39 40 36 43 44 41 42 40 39 32 31 28 26 21 28 31 29 28 24
14 22 36 31 22 27 21 20 16 16 20 18 18 22 24 23 21 18 14 17 10 23 31 33 35 35 31 36 44 44 43 43 44 41 36 34 30 28 24 19 26 26 29 30
10 10 18 17 24 19 15 12 12 15 17 14 14 16 21 25 23 15 16 13 14 15 24 36 42 42 39 37 36 40 44 46 43 39 35 31 33 35 31 31 29 26 26 27
14 13 13 16 14 13 14 15 15 15 17 16 14 16 17 20 17 16 16 17 16 15 17 15 42 46 49 46 42 39 49 44 39 40 41 45 47 45 35 24 28 30 29 31
12 12 9 7 7 7 11 14 12 17 19 17 16 17 19 19 17 20 22 20 21 21 20 21 24 45 56 46 47 47 41 45 45 45 47 36 37 43 35 30 32 40 38 36
25 17 11 9 7 9 9 11 13 16 20 20 17 18 19 19 17 21 23 23 21 23 27 25 25 25 25 40 53 43 47 45 46 49 52 54 47 52 49 47 44 46 51 43
20 19 20 17 13 11 12 14 16 16 18 20 18 18 19 23 20 15 20 23 21 21 23 25 29 30 31 30 29 32 54 63 52 55 55 57 58 60 62 52 48 46 41 38
17 18 16 16 16 16 18 20 22 17 20 20 19 18 18 17 18 26 16 15 18 21 23 22 24 27 29 30 32 34 40 41 41 39 38 36 39 36 28 31 32 30 30 30
11 15 18 18 20 21 20 26 24 21 22 20 17 17 12 10 3 11 19 21 22 22 23 21 21 22 25 26 26 26 27 28 27 25 23 23 24 26 26 27 28 31 34 37
4 6 10 14 22 26 28 27 21 15 14 12 15 15 16 10 9 12 10 11 16 19 24 24 26 27 26 25 24 22 17 15 17 19 21 24 26 28 28 30 33 35 37 39
Wind_Direction
267 262 254 252 234 238 243 239 243 245 256 249 245 243 248 249 247 255 258 265 266 267 267 257 261 247 239 243 246 252 260 261 265 280 277 256 259 265 266 266 272 274 271 267
273 268 247 246 250 243 242 245 251 251 252 252 248 244 249 252 254 256 261 264 265 263 264 263 256 245 232 234 234 246 263 263 266 284 265 251 257 266 273 282 280 270 262 260
272 269 243 233 238 245 247 245 253 254 254 254 250 245 246 253 256 257 259 258 260 262 264 260 253 238 228 222 229 241 260 258 266 282 252 245 253 268 282 277 277 267 252 244
269 268 252 235 230 238 246 241 250 259 256 253 253 251 253 254 253 255 259 262 263 262 261 246 240 228 225 216 223 234 252 256 265 272 244 245 253 269 275 283 285 260 243 242
263 260 253 238 239 240 246 251 254 255 256 251 254 258 260 256 254 261 267 271 272 266 248 232 226 222 223 217 213 226 244 252 263 258 240 243 254 271 272 284 265 230 238 237
259 260 249 237 230 238 239 241 250 249 259 254 251 250 262 262 267 265 277 278 271 260 243 223 217 219 217 214 211 223 237 247 258 242 235 239 255 270 269 278 274 263 254 227
253 256 252 245 233 234 241 241 252 256 256 262 252 254 262 260 261 272 270 264 252 236 223 213 211 213 210 212 209 221 231 242 246 231 229 236 251 266 259 252 270 278 254 248
250 249 254 247 240 240 239 240 247 252 256 260 256 261 260 259 257 251 239 221 231 228 216 206 206 203 202 204 212 219 225 236 236 229 226 234 245 260 278 249 235 244 276 310
244 244 243 250 233 234 238 246 248 253 256 260 260 263 261 253 242 231 233 241 242 229 219 215 200 197 201 208 214 219 223 233 237 230 223 232 240 257 265 268 251 237 237 255
245 242 242 243 244 236 237 240 247 251 255 260 263 257 258 248 228 226 236 243 221 209 209 201 193 198 210 209 216 222 224 235 241 233 227 230 235 244 248 264 244 171 6 220
240 241 240 245 248 242 241 244 244 253 255 254 256 257 252 247 239 231 235 239 211 206 204 203 197 207 214 217 222 220 228 237 237 235 231 228 233 237 234 243 249 246 259 265
235 238 238 232 231 240 234 242 244 247 247 246 248 254 256 250 245 238 236 226 214 205 206 203 205 210 212 218 214 211 224 235 234 227 236 231 230 234 232 234 238 245 245 224
236 235 239 237 240 241 240 238 241 245 241 239 239 243 240 240 236 236 239 228 218 210 209 208 215 210 218 224 203 211 223 232 229 228 233 233 228 229 229 230 236 234 234 239
231 236 231 231 235 238 235 236 236 238 246 238 244 238 249 244 249 222 223 230 216 212 211 217 225 216 224 230 207 215 224 232 230 229 237 238 228 230 232 231 234 237 239 240
217 232 232 229 232 237 236 234 234 237 243 244 239 243 254 258 248 243 228 223 216 212 212 216 223 226 226 226 214 218 225 232 221 227 238 239 233 232 236 238 237 236 238 242
182 218 231 233 233 231 230 235 241 243 247 248 247 242 251 261 265 267 256 232 215 212 215 219 226 220 222 224 222 218 224 228 233 239 239 241 238 238 243 248 247 242 245 245
159 207 214 206 220 226 221 220 228 242 247 251 249 249 249 259 270 278 250 234 190 211 218 224 222 221 218 220 212 216 222 229 234 240 239 241 238 239 255 265 263 252 242 239
163 188 219 236 193 194 201 217 223 242 250 254 254 251 252 260 267 281 276 252 237 183 215 223 218 213 213 211 210 217 225 232 238 243 239 246 244 243 252 265 248 242 232 238
207 159 186 202 220 221 221 219 226 239 247 252 255 250 252 256 263 272 243 274 241 228 189 215 221 221 226 232 234 229 222 234 240 242 235 243 250 243 237 234 229 237 241 246
189 149 168 171 181 194 209 226 236 242 252 253 250 249 250 247 246 232 231 262 249 245 226 226 200 226 232 229 234 232 231 229 239 240 244 240 254 266 224 230 239 241 247 251
168 197 202 189 192 199 218 225 239 245 244 250 250 247 245 244 239 240 242 244 245 232 224 231 215 185 213 221 226 231 242 245 238 239 242 236 255 241 234 254 268 247 246 250
227 228 227 240 267 252 243 252 259 252 242 248 247 248 245 242 241 243 254 243 240 242 229 222 224 229 216 213 217 227 242 244 245 247 253 246 251 251 243 255 256 254 252 247
220 232 234 246 250 263 263 274 284 260 241 245 242 246 246 243 233 255 244 231 230 243 229 229 232 233 238 241 238 239 241 237 242 245 249 251 251 251 253 248 249 247 244 245
202 204 212 229 243 257 271 274 280 254 245 245 240 242 248 256 271 264 273 228 227 232 236 235 237 238 242 245 246 245 247 247 239 240 240 244 240 229 226 230 235 243 253 257
190 200 207 220 238 251 263 268 261 241 236 235 234 234 234 258 278 225 221 221 222 227 230 229 233 236 239 241 243 243 245 246 247 248 253 257 256 257 261 263 262 263 265 265
169 204 223 229 241 244 253 246 236 229 227 229 232 227 219 227 222 228 229 238 242 244 244 245 246 236 228 232 235 235 248 262 275 281 284 287 285 284 279 273 273 271 271 270